Time,TemperatureF,DewpointF,PressureIn,WindDirection,WindDirectionDegrees,WindSpeedMPH,WindSpeedGustMPH,Humidity,HourlyPrecipIn,Conditions,Clouds,dailyrainin,SolarRadiationWatts/m^2,SoftwareType,DateUTC
2013-01-15 00:00:00,26.2,18.8,30.24,NW,315,0.0,3.5,73,0.00,CLR,,0.00,0.0,WeatherDisplay:10.37,2013-01-15 05:00:00,
2013-01-15 00:01:00,26.2,18.8,30.24,NW,315,0.0,3.1,73,0.00,CLR,,0.00,0.0,WeatherDisplay:10.37,2013-01-15 05:01:00,
2013-01-15 00:03:00,26.2,18.8,30.24,NW,315,0.0,3.5,73,0.00,CLR,,0.00,0.0,WeatherDisplay:10.37,2013-01-15 05:03:00,
2013-01-15 00:08:00,26.4,19.3,30.24,NW,315,2.6,3.5,74,0.00,CLR,,0.00,0.0,WeatherDisplay:10.37,2013-01-15 05:08:00,
2013-01-15 00:13:00,26.4,19.3,30.24,NNW,338,0.0,0.0,74,0.00,CLR,,0.00,0.0,WeatherDisplay:10.37,2013-01-15 05:13:00,
2013-01-15 00:18:00,26.1,18.6,30.24,NNW,338,2.6,4.6,73,0.00,CLR,,0.00,0.0,WeatherDisplay:10.37,2013-01-15 05:18:00,
2013-01-15 00:23:00,26.2,18.8,30.21,NW,315,2.6,5.8,73,0.00,CLR,,0.00,0.0,WeatherDisplay:10.37,2013-01-15 05:23:00,
2013-01-15 00:28:00,26.1,18.6,30.21,North,0,0.0,4.0,73,0.00,CLR,,0.00,0.0,WeatherDisplay:10.37,2013-01-15 05:28:00,
2013-01-15 00:33:00,26.1,18.6,30.21,NW,315,3.6,5.8,73,0.00,CLR,,0.00,0.0,WeatherDisplay:10.37,2013-01-15 05:33:00,
2013-01-15 00:38:00,25.9,18.4,30.21,NNW,338,3.1,4.6,73,0.00,CLR,,0.00,0.0,WeatherDisplay:10.37,2013-01-15 05:38:00,
2013-01-15 00:43:00,25.9,18.1,30.21,North,0,2.6,4.6,72,0.00,CLR,,0.00,0.0,WeatherDisplay:10.37,2013-01-15 05:43:00,
2013-01-15 00:48:00,25.7,17.9,30.21,NW,315,0.0,4.6,72,0.00,CLR,,0.00,0.0,WeatherDisplay:10.37,2013-01-15 05:48:00,
2013-01-15 00:53:00,25.9,17.8,30.24,NW,315,3.6,5.8,71,0.00,CLR,,0.00,0.0,WeatherDisplay:10.37,2013-01-15 05:53:00,
2013-01-15 00:58:00,25.7,17.6,30.24,NW,315,4.5,5.8,71,0.00,CLR,,0.00,0.0,WeatherDisplay:10.37,2013-01-15 05:58:00,
2013-01-15 01:03:00,25.7,17.6,30.24,WNW,292,4.0,5.4,71,0.00,CLR,,0.00,0.0,WeatherDisplay:10.37,2013-01-15 06:03:00,
2013-01-15 01:08:00,25.7,17.3,30.21,NNW,338,2.6,5.8,70,0.00,CLR,,0.00,0.0,WeatherDisplay:10.37,2013-01-15 06:08:00,
2013-01-15 01:13:00,25.5,17.1,30.21,NW,315,3.6,5.8,70,0.00,CLR,,0.00,0.0,WeatherDisplay:10.37,2013-01-15 06:13:00,
2013-01-15 01:18:00,25.5,17.1,30.21,NNW,338,3.1,5.8,70,0.00,CLR,,0.00,0.0,WeatherDisplay:10.37,2013-01-15 06:18:00,
2013-01-15 01:23:00,25.7,17.3,30.24,NW,315,2.6,4.6,70,0.00,CLR,,0.00,0.0,WeatherDisplay:10.37,2013-01-15 06:23:00,
2013-01-15 01:28:00,25.7,17.6,30.24,NNW,338,4.5,5.4,71,0.00,CLR,,0.00,0.0,WeatherDisplay:10.37,2013-01-15 06:28:00,
2013-01-15 01:33:00,25.7,17.6,30.24,NW,315,4.0,5.9,71,0.00,CLR,,0.00,0.0,WeatherDisplay:10.37,2013-01-15 06:33:00,
2013-01-15 01:38:00,25.7,17.6,30.24,NW,315,2.6,3.5,71,0.00,CLR,,0.00,0.0,WeatherDisplay:10.37,2013-01-15 06:38:00,
2013-01-15 01:43:00,25.5,17.4,30.24,NW,315,3.6,4.6,71,0.00,CLR,,0.00,0.0,WeatherDisplay:10.37,2013-01-15 06:43:00,
2013-01-15 01:48:00,25.5,17.4,30.24,North,0,3.1,4.6,71,0.00,CLR,,0.00,0.0,WeatherDisplay:10.37,2013-01-15 06:48:00,
2013-01-15 01:53:00,25.5,17.4,30.24,NNW,338,3.1,4.6,71,0.00,CLR,,0.00,0.0,WeatherDisplay:10.37,2013-01-15 06:53:00,
2013-01-15 01:58:00,25.5,17.7,30.24,NNW,338,2.2,3.6,72,0.00,CLR,,0.00,0.0,WeatherDisplay:10.37,2013-01-15 06:58:00,
2013-01-15 02:03:00,25.5,17.7,30.24,NNW,338,2.6,4.6,72,0.00,CLR,,0.00,0.0,WeatherDisplay:10.37,2013-01-15 07:03:00,
2013-01-15 02:08:00,25.3,17.6,30.24,NW,315,0.0,3.5,72,0.00,CLR,,0.00,0.0,WeatherDisplay:10.37,2013-01-15 07:08:00,
2013-01-15 02:13:00,25.5,17.7,30.24,NW,315,0.0,2.3,72,0.00,CLR,,0.00,0.0,WeatherDisplay:10.37,2013-01-15 07:13:00,
2013-01-15 02:18:00,25.5,17.7,30.24,NNW,338,0.0,3.1,72,0.00,CLR,,0.00,0.0,WeatherDisplay:10.37,2013-01-15 07:18:00,
2013-01-15 02:23:00,25.7,18.2,30.24,North,0,2.2,3.6,73,0.00,CLR,,0.00,0.0,WeatherDisplay:10.37,2013-01-15 07:23:00,
2013-01-15 02:29:00,25.7,18.6,30.24,NE,45,2.2,5.8,74,0.00,CLR,,0.00,0.0,WeatherDisplay:10.37,2013-01-15 07:29:00,
2013-01-15 02:34:00,25.9,18.7,30.24,NW,315,2.2,4.6,74,0.00,CLR,,0.00,0.0,WeatherDisplay:10.37,2013-01-15 07:34:00,
2013-01-15 02:39:00,25.9,18.7,30.24,NW,315,2.6,3.5,74,0.00,CLR,,0.00,0.0,WeatherDisplay:10.37,2013-01-15 07:39:00,
2013-01-15 02:44:00,25.7,18.6,30.24,NNE,22,2.6,3.5,74,0.00,CLR,,0.00,0.0,WeatherDisplay:10.37,2013-01-15 07:44:00,
2013-01-15 02:49:00,25.7,18.9,30.24,NE,45,0.0,3.5,75,0.00,CLR,,0.00,0.0,WeatherDisplay:10.37,2013-01-15 07:49:00,
2013-01-15 02:54:00,25.5,18.4,30.24,NNW,338,0.0,3.6,74,0.00,CLR,,0.00,0.0,WeatherDisplay:10.37,2013-01-15 07:54:00,
2013-01-15 02:59:00,25.5,18.7,30.24,NE,45,0.0,4.6,75,0.00,CLR,,0.00,0.0,WeatherDisplay:10.37,2013-01-15 07:59:00,
2013-01-15 03:04:00,25.3,18.5,30.24,East,90,0.0,3.5,75,0.00,CLR,,0.00,0.0,WeatherDisplay:10.37,2013-01-15 08:04:00,
2013-01-15 03:09:00,25.3,18.5,30.24,NW,315,0.0,3.5,75,0.00,CLR,,0.00,0.0,WeatherDisplay:10.37,2013-01-15 08:09:00,
2013-01-15 03:14:00,25.3,18.2,30.24,North,0,0.0,2.6,74,0.00,CLR,,0.00,0.0,WeatherDisplay:10.37,2013-01-15 08:14:00,
2013-01-15 03:19:00,25.3,18.2,30.24,NW,315,2.2,4.6,74,0.00,CLR,,0.00,0.0,WeatherDisplay:10.37,2013-01-15 08:19:00,
2013-01-15 03:24:00,25.2,18.0,30.24,North,0,0.0,3.6,74,0.00,CLR,,0.00,0.0,WeatherDisplay:10.37,2013-01-15 08:24:00,
2013-01-15 03:29:00,25.2,18.0,30.24,North,0,0.0,3.5,74,0.00,CLR,,0.00,0.0,WeatherDisplay:10.37,2013-01-15 08:29:00,
2013-01-15 03:34:00,25.2,18.0,30.24,NW,315,0.0,3.5,74,0.00,CLR,,0.00,0.0,WeatherDisplay:10.37,2013-01-15 08:34:00,
2013-01-15 03:39:00,25.2,18.3,30.24,NW,315,0.0,3.5,75,0.00,CLR,,0.00,0.0,WeatherDisplay:10.37,2013-01-15 08:39:00,
2013-01-15 03:44:00,25.0,18.2,30.24,North,0,2.2,3.5,75,0.00,CLR,,0.00,0.0,WeatherDisplay:10.37,2013-01-15 08:44:00,
2013-01-15 03:49:00,25.0,18.2,30.24,ENE,68,0.0,2.2,75,0.00,CLR,,0.00,0.0,WeatherDisplay:10.37,2013-01-15 08:49:00,
2013-01-15 03:54:00,24.8,18.0,30.24,NE,45,0.0,4.6,75,0.00,CLR,,0.00,0.0,WeatherDisplay:10.37,2013-01-15 08:54:00,
2013-01-15 03:59:00,25.0,18.2,30.24,NW,315,0.0,2.3,75,0.00,CLR,,0.00,0.0,WeatherDisplay:10.37,2013-01-15 08:59:00,
2013-01-15 04:04:00,24.8,18.0,30.24,NNE,22,0.0,2.6,75,0.00,CLR,,0.00,0.0,WeatherDisplay:10.37,2013-01-15 09:04:00,
2013-01-15 04:09:00,25.0,18.2,30.24,NW,315,0.0,4.6,75,0.00,CLR,,0.00,0.0,WeatherDisplay:10.37,2013-01-15 09:09:00,
2013-01-15 04:14:00,24.8,18.3,30.24,NNW,338,0.0,2.3,76,0.00,CLR,,0.00,0.0,WeatherDisplay:10.37,2013-01-15 09:14:00,
2013-01-15 04:19:00,25.0,18.2,30.24,NW,315,0.0,4.5,75,0.00,CLR,,0.00,0.0,WeatherDisplay:10.37,2013-01-15 09:19:00,
2013-01-15 04:24:00,24.8,18.3,30.24,NE,45,0.0,2.6,76,0.00,CLR,,0.00,0.0,WeatherDisplay:10.37,2013-01-15 09:24:00,
2013-01-15 04:29:00,24.8,18.3,30.24,NNW,338,0.0,0.0,76,0.00,CLR,,0.00,0.0,WeatherDisplay:10.37,2013-01-15 09:29:00,
2013-01-15 04:34:00,24.8,18.3,30.24,NNW,338,0.0,3.1,76,0.00,CLR,,0.00,0.0,WeatherDisplay:10.37,2013-01-15 09:34:00,
2013-01-15 04:39:00,24.6,18.1,30.24,NNW,338,2.2,3.5,76,0.00,CLR,,0.00,0.0,WeatherDisplay:10.37,2013-01-15 09:39:00,
2013-01-15 04:44:00,24.8,18.3,30.24,NE,45,2.2,3.5,76,0.00,CLR,,0.00,0.0,WeatherDisplay:10.37,2013-01-15 09:44:00,
2013-01-15 04:49:00,24.8,18.0,30.24,NNW,338,0.0,3.5,75,0.00,CLR,,0.00,0.0,WeatherDisplay:10.37,2013-01-15 09:49:00,
2013-01-15 04:54:00,24.6,17.8,30.21,NW,315,0.0,2.6,75,0.00,CLR,,0.00,0.0,WeatherDisplay:10.37,2013-01-15 09:54:00,
2013-01-15 04:59:00,24.6,17.8,30.21,NE,45,2.2,2.6,75,0.00,CLR,,0.00,0.0,WeatherDisplay:10.37,2013-01-15 09:59:00,
2013-01-15 05:04:00,24.6,17.8,30.21,North,0,0.0,3.5,75,0.00,CLR,,0.00,0.0,WeatherDisplay:10.37,2013-01-15 10:04:00,
2013-01-15 05:09:00,24.4,17.6,30.24,North,0,0.0,2.3,75,0.00,CLR,,0.00,0.0,WeatherDisplay:10.37,2013-01-15 10:09:00,
2013-01-15 05:14:00,24.4,17.6,30.24,North,0,0.0,3.5,75,0.00,CLR,,0.00,0.0,WeatherDisplay:10.37,2013-01-15 10:14:00,
2013-01-15 05:19:00,24.4,17.6,30.24,NNW,338,0.0,2.3,75,0.00,CLR,,0.00,0.0,WeatherDisplay:10.37,2013-01-15 10:19:00,
2013-01-15 05:24:00,24.4,17.6,30.24,North,0,0.0,3.6,75,0.00,CLR,,0.00,0.0,WeatherDisplay:10.37,2013-01-15 10:24:00,
2013-01-15 05:29:00,24.4,17.6,30.24,NE,45,0.0,2.3,75,0.00,CLR,,0.00,0.0,WeatherDisplay:10.37,2013-01-15 10:29:00,
2013-01-15 05:34:00,24.3,17.5,30.24,North,0,0.0,0.0,75,0.00,CLR,,0.00,0.0,WeatherDisplay:10.37,2013-01-15 10:34:00,
2013-01-15 05:39:00,24.4,17.6,30.24,NNE,22,0.0,3.5,75,0.00,CLR,,0.00,0.0,WeatherDisplay:10.37,2013-01-15 10:39:00,
2013-01-15 05:44:00,24.4,17.6,30.24,North,0,0.0,2.6,75,0.00,CLR,,0.00,0.0,WeatherDisplay:10.37,2013-01-15 10:44:00,
2013-01-15 05:49:00,24.4,18.0,30.24,NW,315,0.0,2.3,76,0.00,CLR,,0.00,0.0,WeatherDisplay:10.37,2013-01-15 10:49:00,
2013-01-15 05:54:00,24.4,18.0,30.24,NW,315,0.0,3.1,76,0.00,CLR,,0.00,0.0,WeatherDisplay:10.37,2013-01-15 10:54:00,
2013-01-15 05:59:00,24.4,18.0,30.24,NW,315,0.0,2.3,76,0.00,CLR,,0.00,0.0,WeatherDisplay:10.37,2013-01-15 10:59:00,
2013-01-15 06:04:00,24.4,18.0,30.24,NNW,338,0.0,0.0,76,0.00,CLR,,0.00,0.0,WeatherDisplay:10.37,2013-01-15 11:04:00,
2013-01-15 06:09:00,24.4,18.0,30.24,North,0,0.0,3.1,76,0.00,CLR,,0.00,0.0,WeatherDisplay:10.37,2013-01-15 11:09:00,
2013-01-15 06:14:00,24.4,18.0,30.24,NW,315,0.0,2.3,76,0.00,CLR,,0.00,0.0,WeatherDisplay:10.37,2013-01-15 11:14:00,
2013-01-15 06:19:00,24.4,18.0,30.24,NW,315,0.0,3.6,76,0.00,CLR,,0.00,0.0,WeatherDisplay:10.37,2013-01-15 11:19:00,
2013-01-15 06:24:00,24.6,18.1,30.24,North,0,2.2,3.5,76,0.00,CLR,,0.00,0.0,WeatherDisplay:10.37,2013-01-15 11:24:00,
2013-01-15 06:29:00,24.4,18.0,30.24,NNE,22,0.0,0.0,76,0.00,CLR,,0.00,0.0,WeatherDisplay:10.37,2013-01-15 11:29:00,
2013-01-15 06:34:00,24.4,18.0,30.24,North,0,0.0,0.0,76,0.00,CLR,,0.00,0.0,WeatherDisplay:10.37,2013-01-15 11:34:00,
2013-01-15 06:39:00,24.4,18.0,30.27,NW,315,0.0,2.6,76,0.00,CLR,,0.00,0.0,WeatherDisplay:10.37,2013-01-15 11:39:00,
2013-01-15 06:44:00,24.4,18.0,30.27,North,0,0.0,0.0,76,0.00,CLR,,0.00,0.0,WeatherDisplay:10.37,2013-01-15 11:44:00,
2013-01-15 06:49:00,24.4,18.0,30.27,NNW,338,0.0,0.0,76,0.00,CLR,,0.00,0.0,WeatherDisplay:10.37,2013-01-15 11:49:00,
2013-01-15 06:54:00,24.4,18.0,30.27,NW,315,0.0,2.6,76,0.00,CLR,,0.00,0.0,WeatherDisplay:10.37,2013-01-15 11:54:00,
2013-01-15 06:59:00,24.4,18.0,30.27,North,0,0.0,0.0,76,0.00,CLR,,0.00,0.0,WeatherDisplay:10.37,2013-01-15 11:59:00,
2013-01-15 07:04:00,24.4,18.0,30.27,NNW,338,0.0,3.5,76,0.00,CLR,,0.00,0.0,WeatherDisplay:10.37,2013-01-15 12:04:00,
2013-01-15 07:09:00,24.6,18.1,30.27,NW,315,0.0,3.1,76,0.00,CLR,,0.00,0.0,WeatherDisplay:10.37,2013-01-15 12:09:00,
2013-01-15 07:14:00,25.2,18.7,30.27,NW,315,0.0,6.9,76,0.00,CLR,,0.00,0.0,WeatherDisplay:10.37,2013-01-15 12:14:00,
2013-01-15 07:20:00,25.3,18.8,30.27,NNW,339,1.0,7.0,76,0.00,OVC,,0.00,0.0,WeatherDisplay:10.37,2013-01-15 12:20:00,
2013-01-15 07:25:00,25.3,18.5,30.27,NE,45,2.2,5.8,75,0.00,OVC,,0.00,0.0,WeatherDisplay:10.37,2013-01-15 12:25:00,
2013-01-15 07:30:00,25.5,18.7,30.27,NE,45,2.2,4.6,75,0.00,OVC,,0.00,0.0,WeatherDisplay:10.37,2013-01-15 12:30:00,
2013-01-15 07:35:00,25.5,18.4,30.27,North,0,2.2,5.8,74,0.00,OVC,,0.00,0.0,WeatherDisplay:10.37,2013-01-15 12:35:00,
2013-01-15 07:40:00,25.5,17.7,30.27,East,90,0.0,3.5,72,0.00,OVC,,0.00,0.0,WeatherDisplay:10.37,2013-01-15 12:40:00,
2013-01-15 07:45:00,25.5,17.4,30.27,NE,45,4.5,5.8,71,0.00,OVC,,0.00,0.0,WeatherDisplay:10.37,2013-01-15 12:45:00,
2013-01-15 07:50:00,25.3,16.9,30.27,NE,45,2.2,3.5,70,0.00,OVC,,0.00,0.0,WeatherDisplay:10.37,2013-01-15 12:50:00,
2013-01-15 07:55:00,25.3,16.6,30.36,East,90,4.0,5.8,69,0.00,OVC,,0.00,0.0,WeatherDisplay:10.37,2013-01-15 12:55:00,
2013-01-15 08:00:00,25.3,15.9,30.36,ESE,112,3.6,5.9,67,0.00,OVC,,0.00,0.0,WeatherDisplay:10.37,2013-01-15 13:00:00,
2013-01-15 08:05:00,25.3,15.6,30.36,South,180,0.0,4.0,66,0.00,OVC,,0.00,0.0,WeatherDisplay:10.37,2013-01-15 13:05:00,
2013-01-15 08:10:00,25.3,14.9,30.27,North,0,2.6,8.1,64,0.00,OVC,,0.00,0.0,WeatherDisplay:10.37,2013-01-15 13:10:00,
2013-01-15 08:15:00,25.2,14.3,30.27,East,90,4.5,6.2,63,0.00,OVC,,0.00,0.0,WeatherDisplay:10.37,2013-01-15 13:15:00,
2013-01-15 08:20:00,25.2,13.6,30.27,North,0,3.1,9.2,61,0.00,OVC,,0.00,0.0,WeatherDisplay:10.37,2013-01-15 13:20:00,
2013-01-15 08:25:00,25.2,13.2,30.27,WNW,292,3.1,4.6,60,0.00,OVC,,0.00,0.0,WeatherDisplay:10.37,2013-01-15 13:25:00,
2013-01-15 08:30:00,25.2,12.8,30.27,East,90,3.1,4.6,59,0.00,OVC,,0.00,0.0,WeatherDisplay:10.37,2013-01-15 13:30:00,
2013-01-15 08:35:00,25.3,13.0,30.27,North,0,2.2,5.8,59,0.00,OVC,,0.00,0.0,WeatherDisplay:10.37,2013-01-15 13:35:00,
2013-01-15 08:40:00,25.3,12.6,30.27,NE,45,4.0,4.9,58,0.00,OVC,,0.00,0.0,WeatherDisplay:10.37,2013-01-15 13:40:00,
2013-01-15 08:45:00,25.3,12.2,30.27,East,90,4.9,5.8,57,0.00,OVC,,0.00,0.0,WeatherDisplay:10.37,2013-01-15 13:45:00,
2013-01-15 08:50:00,25.3,12.2,30.27,NE,45,2.6,5.8,57,0.00,OVC,,0.00,0.0,WeatherDisplay:10.37,2013-01-15 13:50:00,
2013-01-15 08:55:00,25.3,11.8,30.36,NE,45,4.0,5.8,56,0.00,OVC,,0.00,0.0,WeatherDisplay:10.37,2013-01-15 13:55:00,
2013-01-15 09:00:00,25.5,12.0,30.36,NE,45,3.1,5.4,56,0.00,OVC,,0.00,0.0,WeatherDisplay:10.37,2013-01-15 14:00:00,
2013-01-15 09:05:00,25.7,11.7,30.36,West,270,3.1,4.6,55,0.00,OVC,,0.00,0.0,WeatherDisplay:10.37,2013-01-15 14:05:00,
2013-01-15 09:10:00,25.9,11.9,30.30,NE,45,3.6,8.1,55,0.00,OVC,,0.00,0.0,WeatherDisplay:10.37,2013-01-15 14:10:00,
2013-01-15 09:15:00,26.1,12.1,30.30,NNE,22,0.0,5.8,55,0.00,OVC,,0.00,0.0,WeatherDisplay:10.37,2013-01-15 14:15:00,
2013-01-15 09:20:00,26.6,12.6,30.30,NE,45,0.0,5.8,55,0.00,OVC,,0.00,0.0,WeatherDisplay:10.37,2013-01-15 14:20:00,
2013-01-15 09:25:00,26.6,12.2,30.30,East,90,2.6,9.2,54,0.00,OVC,,0.00,0.0,WeatherDisplay:10.37,2013-01-15 14:25:00,
2013-01-15 09:30:00,26.8,11.9,30.30,East,90,4.0,5.8,53,0.00,OVC,,0.00,100.0,WeatherDisplay:10.37,2013-01-15 14:30:00,
2013-01-15 09:35:00,26.8,11.0,30.30,NW,315,2.6,5.8,51,0.00,OVC,,0.00,100.0,WeatherDisplay:10.37,2013-01-15 14:35:00,
2013-01-15 09:40:00,27.7,11.9,30.30,East,90,0.0,2.2,51,0.00,OVC,,0.00,100.0,WeatherDisplay:10.37,2013-01-15 14:40:00,
2013-01-15 09:45:00,28.4,12.1,30.30,NE,45,4.0,5.9,50,0.00,OVC,,0.00,200.0,WeatherDisplay:10.37,2013-01-15 14:45:00,
2013-01-15 09:50:00,28.9,11.7,30.30,ENE,68,2.2,5.8,48,0.00,OVC,,0.00,200.0,WeatherDisplay:10.37,2013-01-15 14:50:00,
2013-01-15 09:55:00,29.5,11.2,30.30,NE,45,3.6,5.9,46,0.00,OVC,,0.00,200.0,WeatherDisplay:10.37,2013-01-15 14:55:00,
2013-01-15 10:00:00,29.8,11.1,30.30,South,180,0.0,4.6,45,0.00,OVC,,0.00,200.0,WeatherDisplay:10.37,2013-01-15 15:00:00,
2013-01-15 10:05:00,29.8,10.5,30.30,NE,45,3.6,8.1,44,0.00,OVC,,0.00,200.0,WeatherDisplay:10.37,2013-01-15 15:05:00,
2013-01-15 10:10:00,30.0,10.2,30.27,NE,45,6.7,7.6,43,0.00,OVC,,0.00,200.0,WeatherDisplay:10.37,2013-01-15 15:10:00,
2013-01-15 10:15:00,29.1,8.8,30.27,East,90,5.9,8.1,42,0.00,OVC,,0.00,200.0,WeatherDisplay:10.37,2013-01-15 15:15:00,
2013-01-15 10:20:00,29.7,9.9,30.27,SE,135,3.6,4.6,43,0.00,OVC,,0.00,200.0,WeatherDisplay:10.37,2013-01-15 15:20:00,
2013-01-15 10:25:00,29.5,9.7,30.27,NE,45,2.6,6.9,43,0.00,OVC,,0.00,300.0,WeatherDisplay:10.37,2013-01-15 15:25:00,
2013-01-15 10:30:00,29.3,9.5,30.27,NE,45,4.9,8.1,43,0.00,OVC,,0.00,200.0,WeatherDisplay:10.37,2013-01-15 15:30:00,
2013-01-15 10:35:00,29.7,9.3,30.27,NE,45,3.6,8.1,42,0.00,OVC,,0.00,200.0,WeatherDisplay:10.37,2013-01-15 15:35:00,
2013-01-15 10:40:00,30.2,9.8,30.24,NE,45,4.9,8.1,42,0.00,OVC,,0.00,300.0,WeatherDisplay:10.37,2013-01-15 15:40:00,
2013-01-15 10:45:00,31.3,10.8,30.24,East,90,3.6,4.6,42,0.00,OVC,,0.00,300.0,WeatherDisplay:10.37,2013-01-15 15:45:00,
2013-01-15 10:51:00,31.1,10.1,30.24,East,90,7.6,10.5,41,0.00,OVC,,0.00,300.0,WeatherDisplay:10.37,2013-01-15 15:51:00,
2013-01-15 10:56:00,31.3,10.3,30.27,East,90,4.5,6.9,41,0.00,OVC,,0.00,500.0,WeatherDisplay:10.37,2013-01-15 15:56:00,
2013-01-15 11:01:00,31.6,10.6,30.27,East,90,5.4,9.2,41,0.00,OVC,,0.00,500.0,WeatherDisplay:10.37,2013-01-15 16:01:00,
2013-01-15 11:06:00,31.8,10.2,30.27,East,90,7.1,10.4,40,0.00,OVC,,0.00,500.0,WeatherDisplay:10.37,2013-01-15 16:06:00,
2013-01-15 11:11:00,32.7,11.0,30.27,East,90,4.0,7.1,40,0.00,OVC,,0.00,500.0,WeatherDisplay:10.37,2013-01-15 16:11:00,
2013-01-15 11:16:00,33.6,11.8,30.27,East,90,4.0,5.8,40,0.00,OVC,,0.00,400.0,WeatherDisplay:10.37,2013-01-15 16:16:00,
2013-01-15 11:21:00,32.5,9.7,30.27,NE,45,7.6,9.2,38,0.00,OVC,,0.00,400.0,WeatherDisplay:10.37,2013-01-15 16:21:00,
2013-01-15 11:26:00,32.7,10.4,30.27,WSW,248,3.6,5.8,39,0.00,OVC,,0.00,400.0,WeatherDisplay:10.37,2013-01-15 16:26:00,
2013-01-15 11:31:00,32.7,10.4,30.27,NE,45,4.9,8.1,39,0.00,OVC,,0.00,300.0,WeatherDisplay:10.37,2013-01-15 16:31:00,
2013-01-15 11:36:00,32.7,10.4,30.27,NNE,22,4.5,5.8,39,0.00,OVC,,0.00,400.0,WeatherDisplay:10.37,2013-01-15 16:36:00,
2013-01-15 11:41:00,32.2,9.4,30.27,East,90,6.2,8.1,38,0.00,OVC,,0.00,300.0,WeatherDisplay:10.37,2013-01-15 16:41:00,
2013-01-15 11:46:00,31.1,8.4,30.27,East,90,4.9,9.2,38,0.00,OVC,,0.00,300.0,WeatherDisplay:10.37,2013-01-15 16:46:00,
2013-01-15 11:51:00,30.6,8.5,30.27,ENE,68,4.9,7.1,39,0.00,OVC,,0.00,300.0,WeatherDisplay:10.37,2013-01-15 16:51:00,
2013-01-15 11:56:00,30.2,8.7,30.24,East,90,4.9,6.9,40,0.00,OVC,,0.00,300.0,WeatherDisplay:10.37,2013-01-15 16:56:00,
2013-01-15 12:01:00,30.4,8.9,30.24,NE,45,4.0,6.9,40,0.00,OVC,,0.00,400.0,WeatherDisplay:10.37,2013-01-15 17:01:00,
2013-01-15 12:06:00,31.5,9.9,30.24,NE,45,0.0,5.8,40,0.00,OVC,,0.00,400.0,WeatherDisplay:10.37,2013-01-15 17:06:00,
2013-01-15 12:11:00,31.6,10.0,30.24,East,90,6.7,8.1,40,0.00,OVC,,0.00,400.0,WeatherDisplay:10.37,2013-01-15 17:11:00,
2013-01-15 12:16:00,32.0,10.4,30.24,East,90,2.6,3.6,40,0.00,OVC,,0.00,500.0,WeatherDisplay:10.37,2013-01-15 17:16:00,
2013-01-15 12:21:00,31.3,9.2,30.24,East,90,6.2,9.2,39,0.00,OVC,,0.00,500.0,WeatherDisplay:10.37,2013-01-15 17:21:00,
2013-01-15 12:26:00,31.3,9.7,30.24,East,90,2.2,4.6,40,0.00,OVC,,0.00,500.0,WeatherDisplay:10.37,2013-01-15 17:26:00,
2013-01-15 12:31:00,32.4,10.7,30.24,NW,315,2.2,3.6,40,0.00,OVC,,0.00,400.0,WeatherDisplay:10.37,2013-01-15 17:31:00,
2013-01-15 12:36:00,32.4,10.1,30.24,North,0,2.2,4.6,39,0.00,OVC,,0.00,400.0,WeatherDisplay:10.37,2013-01-15 17:36:00,
2013-01-15 12:41:00,32.5,10.3,30.21,East,90,4.5,5.8,39,0.00,OVC,,0.00,500.0,WeatherDisplay:10.37,2013-01-15 17:41:00,
2013-01-15 12:46:00,32.7,9.9,30.21,East,90,0.0,4.6,38,0.00,OVC,,0.00,500.0,WeatherDisplay:10.37,2013-01-15 17:46:00,
2013-01-15 12:51:00,33.1,10.8,30.21,NW,315,0.0,5.8,39,0.00,OVC,,0.00,500.0,WeatherDisplay:10.37,2013-01-15 17:51:00,
2013-01-15 12:56:00,32.5,9.7,30.21,NNW,338,2.2,3.5,38,0.00,OVC,,0.00,400.0,WeatherDisplay:10.37,2013-01-15 17:56:00,
2013-01-15 13:01:00,32.7,9.9,30.21,NNW,338,4.0,5.8,38,0.00,OVC,,0.00,400.0,WeatherDisplay:10.37,2013-01-15 18:01:00,
2013-01-15 13:06:00,32.9,10.0,30.21,North,0,3.1,6.2,38,0.00,OVC,,0.00,400.0,WeatherDisplay:10.37,2013-01-15 18:06:00,
2013-01-15 13:11:00,32.4,9.5,30.21,ENE,68,4.9,8.1,38,0.00,OVC,,0.00,400.0,WeatherDisplay:10.37,2013-01-15 18:11:00,
2013-01-15 13:16:00,31.8,9.1,30.21,East,90,4.0,6.9,38,0.00,OVC,,0.00,400.0,WeatherDisplay:10.37,2013-01-15 18:16:00,
2013-01-15 13:21:00,32.0,9.2,30.21,NW,315,2.6,5.8,38,0.00,OVC,,0.00,400.0,WeatherDisplay:10.37,2013-01-15 18:21:00,
2013-01-15 13:26:00,32.4,10.1,30.21,East,90,4.0,7.1,39,0.00,OVC,,0.00,400.0,WeatherDisplay:10.37,2013-01-15 18:26:00,
2013-01-15 13:31:00,33.1,10.2,30.21,ESE,112,3.1,8.1,38,0.00,OVC,,0.00,500.0,WeatherDisplay:10.37,2013-01-15 18:31:00,
2013-01-15 13:36:00,33.4,9.9,30.21,North,0,2.6,4.6,37,0.00,OVC,,0.00,400.0,WeatherDisplay:10.37,2013-01-15 18:36:00,
2013-01-15 13:41:00,33.8,10.2,30.18,East,90,3.6,5.9,37,0.00,OVC,,0.00,400.0,WeatherDisplay:10.37,2013-01-15 18:41:00,
2013-01-15 13:46:00,33.3,9.8,30.18,NW,315,4.0,4.6,37,0.00,OVC,,0.00,400.0,WeatherDisplay:10.37,2013-01-15 18:46:00,
2013-01-15 13:51:00,33.1,9.6,30.18,NNW,338,3.1,4.6,37,0.00,OVC,,0.00,300.0,WeatherDisplay:10.37,2013-01-15 18:51:00,
2013-01-15 13:56:00,32.5,9.1,30.18,North,0,3.6,4.6,37,0.00,OVC,,0.00,300.0,WeatherDisplay:10.37,2013-01-15 18:56:00,
2013-01-15 14:01:00,33.1,10.8,30.18,East,90,2.6,4.6,39,0.00,OVC,,0.00,400.0,WeatherDisplay:10.37,2013-01-15 19:01:00,
2013-01-15 14:06:00,33.1,10.8,30.18,East,90,2.2,3.6,39,0.00,OVC,,0.00,400.0,WeatherDisplay:10.37,2013-01-15 19:06:00,
2013-01-15 14:11:00,32.9,10.0,30.18,East,90,3.1,4.6,38,0.00,OVC,,0.00,300.0,WeatherDisplay:10.37,2013-01-15 19:11:00,
2013-01-15 14:16:00,32.9,10.0,30.18,NE,45,3.1,3.5,38,0.00,OVC,,0.00,300.0,WeatherDisplay:10.37,2013-01-15 19:16:00,
2013-01-15 14:21:00,32.7,9.9,30.18,North,0,3.1,5.8,38,0.00,OVC,,0.00,300.0,WeatherDisplay:10.37,2013-01-15 19:21:00,
2013-01-15 14:26:00,32.7,9.9,30.18,ENE,68,3.1,4.9,38,0.00,OVC,,0.00,300.0,WeatherDisplay:10.37,2013-01-15 19:26:00,
2013-01-15 14:31:00,32.2,10.0,30.18,NNE,22,3.6,4.6,39,0.00,OVC,,0.00,300.0,WeatherDisplay:10.37,2013-01-15 19:31:00,
2013-01-15 14:36:00,32.2,10.0,30.18,East,90,3.1,6.2,39,0.00,OVC,,0.00,300.0,WeatherDisplay:10.37,2013-01-15 19:36:00,
2013-01-15 14:41:00,32.2,10.0,30.18,East,90,2.6,3.5,39,0.00,OVC,,0.00,300.0,WeatherDisplay:10.37,2013-01-15 19:41:00,
2013-01-15 14:46:00,32.2,10.0,30.18,East,90,2.2,4.6,39,0.00,OVC,,0.00,300.0,WeatherDisplay:10.37,2013-01-15 19:46:00,
2013-01-15 14:51:00,32.2,10.0,30.18,SSE,158,3.1,4.6,39,0.00,OVC,,0.00,300.0,WeatherDisplay:10.37,2013-01-15 19:51:00,
2013-01-15 14:56:00,32.4,10.1,30.15,East,90,0.0,6.9,39,0.00,OVC,,0.00,200.0,WeatherDisplay:10.37,2013-01-15 19:56:00,
2013-01-15 15:01:00,32.0,9.2,30.15,SE,135,2.6,5.8,38,0.00,OVC,,0.00,200.0,WeatherDisplay:10.37,2013-01-15 20:01:00,
2013-01-15 15:06:00,31.8,9.1,30.15,NE,45,2.6,5.8,38,0.00,OVC,,0.00,200.0,WeatherDisplay:10.37,2013-01-15 20:06:00,
2013-01-15 15:11:00,31.8,9.6,30.15,East,90,3.6,8.1,39,0.00,OVC,,0.00,200.0,WeatherDisplay:10.37,2013-01-15 20:11:00,
2013-01-15 15:16:00,32.0,10.4,30.15,North,0,2.2,5.8,40,0.00,OVC,,0.00,200.0,WeatherDisplay:10.37,2013-01-15 20:16:00,
2013-01-15 15:21:00,32.2,10.5,30.15,ENE,68,3.1,4.6,40,0.00,OVC,,0.00,200.0,WeatherDisplay:10.37,2013-01-15 20:21:00,
2013-01-15 15:26:00,32.4,10.7,30.15,East,90,0.0,3.5,40,0.00,OVC,,0.00,100.0,WeatherDisplay:10.37,2013-01-15 20:26:00,
2013-01-15 15:31:00,32.0,10.4,30.15,NE,45,3.6,5.9,40,0.00,OVC,,0.00,100.0,WeatherDisplay:10.37,2013-01-15 20:31:00,
2013-01-15 15:36:00,32.2,10.5,30.15,NE,45,2.2,4.6,40,0.00,OVC,,0.00,100.0,WeatherDisplay:10.37,2013-01-15 20:36:00,
2013-01-15 15:41:00,31.8,10.2,30.15,NE,45,3.6,9.2,40,0.00,OVC,,0.00,100.0,WeatherDisplay:10.37,2013-01-15 20:41:00,
2013-01-15 15:46:00,31.5,9.9,30.15,East,90,4.9,8.1,40,0.00,OVC,,0.00,100.0,WeatherDisplay:10.37,2013-01-15 20:46:00,
2013-01-15 15:51:00,31.5,9.9,30.15,NNE,22,4.0,6.9,40,0.00,OVC,,0.00,100.0,WeatherDisplay:10.37,2013-01-15 20:51:00,
2013-01-15 15:56:00,31.5,9.9,30.15,NE,45,5.4,8.7,40,0.00,OVC,,0.00,100.0,WeatherDisplay:10.37,2013-01-15 20:56:00,
2013-01-15 16:01:00,31.5,9.9,30.15,East,90,3.6,5.8,40,0.00,OVC,,0.00,100.0,WeatherDisplay:10.37,2013-01-15 21:01:00,
2013-01-15 16:06:00,31.5,9.9,30.15,East,90,4.5,8.1,40,0.00,OVC,,0.00,100.0,WeatherDisplay:10.37,2013-01-15 21:06:00,
2013-01-15 16:11:00,31.5,9.9,30.18,East,90,3.6,5.8,40,0.00,OVC,,0.00,100.0,WeatherDisplay:10.37,2013-01-15 21:11:00,
2013-01-15 16:16:00,31.3,9.7,30.18,East,90,4.0,5.8,40,0.00,OVC,,0.00,100.0,WeatherDisplay:10.37,2013-01-15 21:16:00,
2013-01-15 16:21:00,31.5,9.9,30.18,North,0,2.2,3.6,40,0.00,OVC,,0.00,0.0,WeatherDisplay:10.37,2013-01-15 21:21:00,
2013-01-15 16:26:00,31.5,9.9,30.18,NE,45,2.2,3.6,40,0.00,OVC,,0.00,0.0,WeatherDisplay:10.37,2013-01-15 21:26:00,
2013-01-15 16:31:00,31.5,9.9,30.18,NW,315,2.2,5.8,40,0.00,OVC,,0.00,0.0,WeatherDisplay:10.37,2013-01-15 21:31:00,
2013-01-15 16:36:00,31.5,9.9,30.18,NW,315,0.0,4.6,40,0.00,OVC,,0.00,0.0,WeatherDisplay:10.37,2013-01-15 21:36:00,
2013-01-15 16:41:00,31.3,9.7,30.18,WNW,292,2.6,3.5,40,0.00,OVC,,0.00,0.0,WeatherDisplay:10.37,2013-01-15 21:41:00,
2013-01-15 16:46:00,31.1,9.6,30.18,NNW,338,2.6,3.6,40,0.00,OVC,,0.00,0.0,WeatherDisplay:10.37,2013-01-15 21:46:00,
2013-01-15 16:51:00,31.1,9.6,30.18,North,0,2.2,3.5,40,0.00,OVC,,0.00,0.0,WeatherDisplay:10.37,2013-01-15 21:51:00,
2013-01-15 16:56:00,30.9,9.4,30.18,NW,315,3.6,5.8,40,0.00,OVC,,0.00,0.0,WeatherDisplay:10.37,2013-01-15 21:56:00,
2013-01-15 17:01:00,30.7,9.2,30.18,NE,45,2.2,3.5,40,0.00,OVC,,0.00,0.0,WeatherDisplay:10.37,2013-01-15 22:01:00,
2013-01-15 17:06:00,30.7,9.2,30.18,North,0,2.2,3.5,40,0.00,OVC,,0.00,0.0,WeatherDisplay:10.37,2013-01-15 22:06:00,
2013-01-15 17:11:00,30.7,9.2,30.18,North,0,2.2,3.5,40,0.00,OVC,,0.00,0.0,WeatherDisplay:10.37,2013-01-15 22:11:00,
2013-01-15 17:16:00,30.6,9.1,30.18,North,0,2.2,3.5,40,0.00,OVC,,0.00,0.0,WeatherDisplay:10.37,2013-01-15 22:16:00,
2013-01-15 17:21:00,30.6,9.6,30.18,North,0,0.0,4.6,41,0.00,OVC,,0.00,0.0,WeatherDisplay:10.37,2013-01-15 22:21:00,
2013-01-15 17:26:00,30.4,9.5,30.18,West,270,4.0,9.2,41,0.00,OVC,,0.00,0.0,WeatherDisplay:10.37,2013-01-15 22:26:00,
2013-01-15 17:31:00,30.4,9.5,30.18,NW,315,2.2,5.4,41,0.00,OVC,,0.00,0.0,WeatherDisplay:10.37,2013-01-15 22:31:00,
2013-01-15 17:36:00,30.4,9.5,30.18,ENE,68,0.0,4.6,41,0.00,OVC,,0.00,0.0,WeatherDisplay:10.37,2013-01-15 22:36:00,
2013-01-15 17:41:00,30.2,9.3,30.15,ENE,68,2.6,4.6,41,0.00,OVC,,0.00,0.0,WeatherDisplay:10.37,2013-01-15 22:41:00,
2013-01-15 17:46:00,30.2,9.3,30.15,North,0,4.0,5.9,41,0.00,OVC,,0.00,0.0,WeatherDisplay:10.37,2013-01-15 22:46:00,
2013-01-15 17:51:00,30.2,9.3,30.15,South,180,2.6,4.9,41,0.00,OVC,,0.00,0.0,WeatherDisplay:10.37,2013-01-15 22:51:00,
2013-01-15 17:56:00,30.2,9.8,30.15,NNE,22,4.0,7.1,42,0.00,OVC,,0.00,0.0,WeatherDisplay:10.37,2013-01-15 22:56:00,
2013-01-15 18:01:00,30.2,9.8,30.15,ENE,68,3.6,4.6,42,0.00,CLR,,0.00,0.0,WeatherDisplay:10.37,2013-01-15 23:01:00,
2013-01-15 18:06:00,30.2,9.8,30.15,East,90,3.6,4.6,42,0.00,CLR,,0.00,0.0,WeatherDisplay:10.37,2013-01-15 23:06:00,
2013-01-15 18:11:00,30.2,9.8,30.15,NE,45,4.0,7.6,42,0.00,CLR,,0.00,0.0,WeatherDisplay:10.37,2013-01-15 23:11:00,
2013-01-15 18:16:00,30.2,9.8,30.15,NE,45,4.0,4.6,42,0.00,CLR,,0.00,0.0,WeatherDisplay:10.37,2013-01-15 23:16:00,
2013-01-15 18:21:00,30.0,9.7,30.15,ENE,68,4.0,5.9,42,0.00,CLR,,0.00,0.0,WeatherDisplay:10.37,2013-01-15 23:21:00,
2013-01-15 18:26:00,30.0,9.7,30.12,West,270,6.2,9.2,42,0.00,CLR,,0.00,0.0,WeatherDisplay:10.37,2013-01-15 23:26:00,
2013-01-15 18:31:00,29.8,9.5,30.12,South,180,4.0,4.9,42,0.00,CLR,,0.00,0.0,WeatherDisplay:10.37,2013-01-15 23:31:00,
2013-01-15 18:36:00,29.8,9.5,30.12,North,0,4.5,5.9,42,0.00,CLR,,0.00,0.0,WeatherDisplay:10.37,2013-01-15 23:36:00,
2013-01-15 18:41:00,29.8,9.5,30.12,East,90,3.6,8.1,42,0.00,CLR,,0.00,0.0,WeatherDisplay:10.37,2013-01-15 23:41:00,
2013-01-15 18:46:00,29.7,9.3,30.12,NW,315,3.1,4.6,42,0.00,CLR,,0.00,0.0,WeatherDisplay:10.37,2013-01-15 23:46:00,
2013-01-15 18:51:00,29.7,9.3,30.12,East,90,2.2,4.9,42,0.00,CLR,,0.00,0.0,WeatherDisplay:10.37,2013-01-15 23:51:00,
2013-01-15 18:56:00,29.7,9.9,30.12,NE,45,3.6,4.6,43,0.00,CLR,,0.00,0.0,WeatherDisplay:10.37,2013-01-15 23:56:00,
2013-01-15 19:01:00,29.5,9.7,30.12,ENE,68,0.0,3.6,43,0.00,CLR,,0.00,0.0,WeatherDisplay:10.37,2013-01-16 00:01:00,
2013-01-15 19:06:00,29.5,9.7,30.12,North,0,0.0,3.5,43,0.00,CLR,,0.00,0.0,WeatherDisplay:10.37,2013-01-16 00:06:00,
2013-01-15 19:11:00,29.5,9.7,30.12,NE,45,0.0,0.0,43,0.00,CLR,,0.00,0.0,WeatherDisplay:10.37,2013-01-16 00:11:00,
2013-01-15 19:16:00,29.5,9.7,30.12,ESE,112,0.0,2.3,43,0.00,CLR,,0.00,0.0,WeatherDisplay:10.37,2013-01-16 00:16:00,
2013-01-15 19:21:00,29.5,10.2,30.12,NE,45,2.2,5.9,44,0.00,CLR,,0.00,0.0,WeatherDisplay:10.37,2013-01-16 00:21:00,
2013-01-15 19:26:00,29.5,10.2,30.09,NNW,338,0.0,4.9,44,0.00,CLR,,0.00,0.0,WeatherDisplay:10.37,2013-01-16 00:26:00,
2013-01-15 19:31:00,29.5,10.2,30.09,NW,315,0.0,3.5,44,0.00,CLR,,0.00,0.0,WeatherDisplay:10.37,2013-01-16 00:31:00,
2013-01-15 19:36:00,29.5,10.2,30.09,North,0,0.0,2.2,44,0.00,CLR,,0.00,0.0,WeatherDisplay:10.37,2013-01-16 00:36:00,
2013-01-15 19:41:00,29.5,10.2,30.12,East,90,0.0,4.6,44,0.00,CLR,,0.00,0.0,WeatherDisplay:10.37,2013-01-16 00:41:00,
2013-01-15 19:46:00,29.5,10.2,30.12,North,0,0.0,3.5,44,0.00,CLR,,0.00,0.0,WeatherDisplay:10.37,2013-01-16 00:46:00,
2013-01-15 19:51:00,29.5,10.2,30.12,East,90,2.2,4.6,44,0.00,CLR,,0.00,0.0,WeatherDisplay:10.37,2013-01-16 00:51:00,
2013-01-15 19:56:00,29.7,10.9,30.15,NE,45,2.2,4.0,45,0.00,CLR,,0.00,0.0,WeatherDisplay:10.37,2013-01-16 00:56:00,
2013-01-15 20:01:00,29.7,10.4,30.15,NE,45,3.6,7.1,44,0.00,CLR,,0.00,0.0,WeatherDisplay:10.37,2013-01-16 01:01:00,
2013-01-15 20:06:00,29.7,10.4,30.15,NE,45,4.0,5.8,44,0.00,CLR,,0.00,0.0,WeatherDisplay:10.37,2013-01-16 01:06:00,
2013-01-15 20:11:00,29.7,10.4,30.09,ENE,68,3.6,4.6,44,0.00,CLR,,0.00,0.0,WeatherDisplay:10.37,2013-01-16 01:11:00,
2013-01-15 20:16:00,29.7,10.4,30.09,East,90,4.5,8.1,44,0.00,CLR,,0.00,0.0,WeatherDisplay:10.37,2013-01-16 01:16:00,
2013-01-15 20:21:00,29.8,10.5,30.09,ENE,68,3.6,5.9,44,0.00,CLR,,0.00,0.0,WeatherDisplay:10.37,2013-01-16 01:21:00,
2013-01-15 20:26:00,29.8,10.5,30.09,East,90,5.4,8.1,44,0.00,CLR,,0.00,0.0,WeatherDisplay:10.37,2013-01-16 01:26:00,
2013-01-15 20:31:00,29.8,10.5,30.09,NE,45,4.5,6.2,44,0.00,CLR,,0.00,0.0,WeatherDisplay:10.37,2013-01-16 01:31:00,
2013-01-15 20:36:00,29.8,10.5,30.09,NE,45,3.1,8.1,44,0.00,CLR,,0.00,0.0,WeatherDisplay:10.37,2013-01-16 01:36:00,
2013-01-15 20:41:00,29.8,10.5,30.06,West,270,4.0,5.9,44,0.00,CLR,,0.00,0.0,WeatherDisplay:10.37,2013-01-16 01:41:00,
2013-01-15 20:46:00,29.8,10.5,30.06,NNE,22,4.9,5.9,44,0.00,CLR,,0.00,0.0,WeatherDisplay:10.37,2013-01-16 01:46:00,
2013-01-15 20:51:00,29.8,10.5,30.06,NE,45,5.9,8.1,44,0.00,CLR,,0.00,0.0,WeatherDisplay:10.37,2013-01-16 01:51:00,
2013-01-15 20:56:00,30.0,10.7,30.06,East,90,4.0,6.2,44,0.00,CLR,,0.00,0.0,WeatherDisplay:10.37,2013-01-16 01:56:00,
2013-01-15 21:01:00,30.0,10.7,30.06,ENE,68,6.2,8.3,44,0.00,CLR,,0.00,0.0,WeatherDisplay:10.37,2013-01-16 02:01:00,
2013-01-15 21:06:00,30.0,10.7,30.06,NE,45,4.5,9.2,44,0.00,CLR,,0.00,0.0,WeatherDisplay:10.37,2013-01-16 02:06:00,
2013-01-15 21:11:00,30.0,10.2,30.06,NE,45,3.6,4.6,43,0.00,CLR,,0.00,0.0,WeatherDisplay:10.37,2013-01-16 02:11:00,
2013-01-15 21:16:00,30.0,10.2,30.06,ENE,68,4.5,6.9,43,0.00,CLR,,0.00,0.0,WeatherDisplay:10.37,2013-01-16 02:16:00,
2013-01-15 21:21:00,30.2,10.4,30.06,ENE,68,4.0,7.6,43,0.00,CLR,,0.00,0.0,WeatherDisplay:10.37,2013-01-16 02:21:00,
2013-01-15 21:26:00,30.2,10.4,30.06,ENE,68,5.4,5.8,43,0.00,CLR,,0.00,0.0,WeatherDisplay:10.37,2013-01-16 02:26:00,
2013-01-15 21:31:00,30.2,10.4,30.06,ENE,68,4.5,6.2,43,0.00,CLR,,0.00,0.0,WeatherDisplay:10.37,2013-01-16 02:31:00,
2013-01-15 21:36:00,30.2,10.4,30.06,ENE,68,3.1,4.9,43,0.00,CLR,,0.00,0.0,WeatherDisplay:10.37,2013-01-16 02:36:00,
2013-01-15 21:41:00,30.2,10.4,30.06,East,90,2.6,4.6,43,0.00,CLR,,0.00,0.0,WeatherDisplay:10.37,2013-01-16 02:41:00,
2013-01-15 21:46:00,30.2,10.4,30.06,East,90,0.0,3.5,43,0.00,CLR,,0.00,0.0,WeatherDisplay:10.37,2013-01-16 02:46:00,
2013-01-15 21:51:00,30.2,10.4,30.06,ENE,68,2.2,2.6,43,0.00,CLR,,0.00,0.0,WeatherDisplay:10.37,2013-01-16 02:51:00,
2013-01-15 21:56:00,30.2,10.4,30.06,North,0,2.6,5.8,43,0.00,CLR,,0.00,0.0,WeatherDisplay:10.37,2013-01-16 02:56:00,
2013-01-15 22:01:00,30.2,10.4,30.06,East,90,0.0,4.6,43,0.00,CLR,,0.00,0.0,WeatherDisplay:10.37,2013-01-16 03:01:00,
2013-01-15 22:06:00,30.2,10.4,30.06,ENE,68,4.5,5.8,43,0.00,CLR,,0.00,0.0,WeatherDisplay:10.37,2013-01-16 03:06:00,
2013-01-15 22:11:00,30.2,10.4,30.06,East,90,3.6,5.8,43,0.00,CLR,,0.00,0.0,WeatherDisplay:10.37,2013-01-16 03:11:00,
2013-01-15 22:16:00,30.2,10.4,30.06,ENE,68,3.6,4.6,43,0.00,CLR,,0.00,0.0,WeatherDisplay:10.37,2013-01-16 03:16:00,
2013-01-15 22:21:00,30.2,10.4,30.06,ENE,68,2.2,3.5,43,0.00,CLR,,0.00,0.0,WeatherDisplay:10.37,2013-01-16 03:21:00,
2013-01-15 22:26:00,30.2,10.4,30.03,NE,45,5.4,6.9,43,0.00,CLR,,0.00,0.0,WeatherDisplay:10.37,2013-01-16 03:26:00,
2013-01-15 22:31:00,30.2,10.4,30.03,East,90,4.5,5.9,43,0.00,CLR,,0.00,0.0,WeatherDisplay:10.37,2013-01-16 03:31:00,
2013-01-15 22:36:00,30.2,10.4,30.03,ENE,68,3.6,4.0,43,0.00,CLR,,0.00,0.0,WeatherDisplay:10.37,2013-01-16 03:36:00,
2013-01-15 22:41:00,30.2,10.4,30.03,ENE,68,2.6,4.6,43,0.00,CLR,,0.00,0.0,WeatherDisplay:10.37,2013-01-16 03:41:00,
2013-01-15 22:46:00,30.2,10.4,30.03,ESE,112,0.0,4.6,43,0.00,CLR,,0.00,0.0,WeatherDisplay:10.37,2013-01-16 03:46:00,
2013-01-15 22:51:00,30.2,10.4,30.03,ENE,68,3.6,5.8,43,0.00,CLR,,0.00,0.0,WeatherDisplay:10.37,2013-01-16 03:51:00,
2013-01-15 22:56:00,30.2,10.4,30.03,NE,45,2.2,4.0,43,0.00,CLR,,0.00,0.0,WeatherDisplay:10.37,2013-01-16 03:56:00,
2013-01-15 23:01:00,30.2,10.4,30.03,ENE,68,0.0,3.5,43,0.00,CLR,,0.00,0.0,WeatherDisplay:10.37,2013-01-16 04:01:00,
2013-01-15 23:06:00,30.2,10.4,30.03,NNW,338,0.0,0.0,43,0.00,CLR,,0.00,0.0,WeatherDisplay:10.37,2013-01-16 04:06:00,
2013-01-15 23:11:00,30.2,10.4,30.03,NNE,22,0.0,2.3,43,0.00,CLR,,0.00,0.0,WeatherDisplay:10.37,2013-01-16 04:11:00,
2013-01-15 23:16:00,30.2,10.4,30.03,NE,45,2.2,3.5,43,0.00,CLR,,0.00,0.0,WeatherDisplay:10.37,2013-01-16 04:16:00,
2013-01-15 23:21:00,30.2,10.4,30.03,NE,45,0.0,3.5,43,0.00,CLR,,0.00,0.0,WeatherDisplay:10.37,2013-01-16 04:21:00,
2013-01-15 23:26:00,30.2,10.4,30.03,NE,45,2.2,5.8,43,0.00,CLR,,0.00,0.0,WeatherDisplay:10.37,2013-01-16 04:26:00,
2013-01-15 23:31:00,30.2,10.4,30.03,East,90,0.0,2.6,43,0.00,CLR,,0.00,0.0,WeatherDisplay:10.37,2013-01-16 04:31:00,
2013-01-15 23:36:00,30.2,10.9,30.03,North,0,0.0,0.0,44,0.00,CLR,,0.00,0.0,WeatherDisplay:10.37,2013-01-16 04:36:00,
2013-01-15 23:41:00,30.2,10.9,30.03,NE,45,2.6,5.4,44,0.00,CLR,,0.00,0.0,WeatherDisplay:10.37,2013-01-16 04:41:00,
2013-01-15 23:46:00,30.4,10.5,30.03,NE,45,2.6,4.6,43,0.00,CLR,,0.00,0.0,WeatherDisplay:10.37,2013-01-16 04:46:00,
2013-01-15 23:51:00,30.2,10.9,30.03,NE,45,0.0,2.3,44,0.00,CLR,,0.00,0.0,WeatherDisplay:10.37,2013-01-16 04:51:00,
2013-01-15 23:56:00,30.4,10.5,30.00,East,90,2.2,3.6,43,0.00,CLR,,0.00,0.0,WeatherDisplay:10.37,2013-01-16 04:56:00,